CZ-6A DEB, 54348

Orbit data source: Space-Track

CZ-6A DEB, 54348 is space debris in SSO originally from a launch on Fri, 11 Nov 2022 UTC launched from the Taiyaun Space Center, China (TSC). Debris objects in space refer to the collection of defunct objects orbiting the Earth. Examples of debris include non-operational satellites, rocket bodies, and fragments generated from explosions, collisions, or faulty payload assembly.

Loading next visibility...
Identifier
54348, 2022-151CT
Orbit
SSO
Country
Flag of CNCN / PRC
Related business
Manufacturer
SAST
Mission
Spacecraft
Bus & Motor
Unknown
Mass
Unknown
Launch date (UTC)
2022-11-11 (4 years ago)
Launch vehicle
Unknown
Launch site
Taiyaun Space Center, China (TSC)
Object type
Payload
Rocket body
Debris
Shape & HBR
Unknown shape, 0.1 m
Radar Cross Section
Medium (>0.1 m² and <1 m²)

Expand to show TLE details & history
Last TLE update: 19 hours ago

TLE from 19 hours ago
0 CZ-6A DEB
1 54348U 22151CT  26207.02716928  .00000761  00000-0  26195-3 0  9997
2 54348  98.6255 235.6848 0099342 284.2768  74.7402 14.36186757193163
Epoch: 2026-07-26T00:39Z
TLE epoch observation values (Epoch: 2026-07-26T00:39:07.425Z)
Latitude
-0.00003°
Longitude
-77.82713°
Altitude
756.028 km
Speed
7.486 km/s
True Right ascension
15h 42m 44s
True Declination
0° 00' 00"
Sunlit
Object was in daylight at epoch
Visualization orbit readout
Latitude
Unknown
Longitude
Unknown
Altitude
Unknown
Speed
Unknown
Apparent Right ascension
Unknown
Apparent Declination
Unknown
Sunlit
N/A
Visualization observer readout
Local Sidereal Time
09:23:15
Azimuth
Unknown
Elevation
Unknown
Doppler factor
Unknown
Orbital elements
Apogee altitude
839.252 km
Perigee altitude
697.264 km
Semi-major axis
7,146.395 km
Eccentricity
0.00993
Inclination
98.6255°
RAAN
235.6848°
Arg. of periapsis
284.2768°
True anomaly
75.84197°
Mean anomaly
74.7402°
Eccentric anomaly
75.29073°
Mean motion
3.59263 °/min
Orbital period
100.21 mins
BSTAR
0.00026195
Loading maneuver chart data...
Computing Atmospheric mass density...
Loading historical data...
Loading historical data...
Loading historical data...
Loading historical data...
Loading historical data...
Loading historical data...
Loading historical data...

Documentation

Showing up to 5 results
|